This demonstration page uses our WeatherBlox Daily Observations layout. Learn more.

Left ArrowRight Arrow

39.29038, -76.61219

Hourly Observations for January 2, 2017

Temp ( °F °C ) Dew Point ( °F °C ) Humidity (%) Winds ( mph kmh ) Pressure ( in mb ) Visibility ( mi km ) Precip ( " mm )
12:54 am 00:54 undefined 44 6.7 29 -1.7 55 55 undefined N/A 30.39 1029 N/A 0.00 0.00
1:54 am 01:54 undefined 44 6.7 29 -1.7 55 55 undefined N/A 30.38 1029 N/A 0.00 0.00
2:54 am 02:54 undefined 43 6.1 31 -0.6 63 63 undefined N/A 30.38 1029 N/A 0.03 0.76
3:54 am 03:54 undefined 40 4.4 34 1.1 79 79 undefined N/A 30.39 1029 N/A 0.10 2.54
4:54 am 04:54 undefined 40 4.4 35 1.7 83 83 undefined N/A 30.40 1029 N/A 0.04 1.02
5:54 am 05:54 undefined 40 4.4 36 2.2 86 86 undefined N/A 30.41 1030 N/A 0.01 0.25
6:54 am 06:54 undefined 40 4.4 37 2.8 89 89 undefined N/A 30.40 1029 N/A 0.01 0.25
7:54 am 07:54 undefined 41 5 38 3.3 89 89 undefined N/A 30.39 1029 N/A 0.01 0.25
8:54 am 08:54 undefined 42 5.6 38 3.3 85 85 undefined N/A 30.39 1029 N/A 0.00 0.00
9:54 am 09:54 undefined 43 6.1 39 3.9 86 86 undefined N/A 30.40 1029 N/A 0.02 0.51
10:54 am 10:54 undefined 43 6.1 39 3.9 86 86 undefined N/A 30.38 1029 N/A 0.01 0.25
11:54 am 11:54 undefined 43 6.1 39 3.9 86 86 undefined N/A 30.35 1028 N/A 0.03 0.76
12:54 pm 12:54 undefined 43 6.1 40 4.4 89 89 undefined N/A 30.32 1027 N/A 0.04 1.02
1:54 pm 13:54 undefined 44 6.7 40 4.4 85 85 undefined N/A 30.30 1026 N/A 0.03 0.76
2:54 pm 14:54 undefined 44 6.7 40 4.4 85 85 undefined N/A 30.29 1026 N/A 0.01 0.25
3:54 pm 15:54 undefined 45 7.2 41 5 86 86 undefined N/A 30.29 1026 N/A 0.02 0.51
4:54 pm 16:54 undefined 45 7.2 41 5 86 86 undefined N/A 30.28 1026 N/A 0.01 0.25
5:54 pm 17:54 undefined 44 6.7 40 4.4 85 85 undefined N/A 30.28 1025 N/A 0.00 0.00
6:54 pm 18:54 undefined 44 6.7 40 4.4 85 85 undefined N/A 30.27 1025 N/A 0.01 0.25
7:54 pm 19:54 undefined 44 6.7 40 4.4 85 85 undefined N/A 30.27 1025 N/A 0.00 0.00
8:54 pm 20:54 undefined 44 6.7 40 4.4 85 85 undefined N/A 30.24 1024 N/A 0.00 0.00
9:54 pm 21:54 undefined 44 6.7 40 4.4 85 85 undefined N/A 30.22 1024 N/A 0.00 0.00
10:54 pm 22:54 undefined 44 6.7 40 4.4 85 85 undefined N/A 30.20 1023 N/A 0.00 0.00
11:54 pm 23:54 undefined 44 6.7 40 4.4 85 85 undefined N/A 30.19 1023 N/A 0.00 0.00

Powered by AerisWeather